Location: Braunsdorf
(50.7357°N, 11.9136°E)
Time: 11:20:58
(UTC+00:00)

Cosmos 2322 Rocket - Pass Details

Date: 17 February 2020
Orbit: 833 x 851 km, 71.0° (Epoch: 08 April)

Event Time Altitude Azimuth Distance (km) Brightness Sun altitude
Exits shadow 02:15:17 17° 5° (N) 2,063 4.5 -38.5°
Drops below altitude 10° 02:16:47 10° 16° (NNE) 2,490 5.1 -38.3°
Sets 02:19:38 0° 28° (NNE) 3,429 6.1 -37.9°
